[[{"header":{"parameterUnit":"m.s-1","parameterCategory":1,"la1":30.2991,"la2":30.254,"lo1":-89.0895,"lo2":-89.0444,"dy":0.0017,"dx":0.0017,"nx":28,"ny":28,"refTime":"2025-02-07T03:00:00:Z","depth":0,"parameterNumber":2,"parameterNumberName":"U-component_of_WINDS"},"data":[0,0,0,0,0,0,0,0,0,0,0,0,0,0,0,0,0,0,0,0,0,0,0,0,0,0,0,0,0,0,0,0,0,0,0,0,0,0,0,0,0,0,0,0,0,0,0,0,0,0,0,0,0,0,0,0,0,0,0.1271,0.1271,0,0.1297,0.1297,0.1297,0.1305,0.1305,0.1305,0.1305,0.1331,0.1332,0.1333,0,0,0,0,0,0,0,0,0,0,0,0,0,0.1227,0.1228,0.1271,0.1271,0.1271,0.1297,0.1297,0.1297,0.1305,0.1305,0.1305,0.1305,0.1331,0.1332,0.1333,0,0,0,0,0,0,0,0,0,0,0,0,0,0.1249,0.1228,0.1271,0.1278,0.1279,0.1297,0.1297,0.1298,0.1305,0.1305,0.1305,0.1305,0.1331,0.1332,0.1333,0.1345,0,0,0.1337,0.1338,0,0,0,0,0,0,0,0,0.1248,0.1251,0.1277,0.1278,0.1279,0.1297,0.1292,0.1314,0.1305,0.1295,0.1305,0.1304,0.132,0.1322,0.1328,0.1346,0.1348,0.1337,0.1338,0.1339,0.1339,0,0,0,0,0,0,0,0.1246,0.125,0.1281,0.1277,0.1278,0.128,0.1283,0.1296,0.1309,0.1296,0.1297,0.13,0.1321,0.1327,0.1328,0.1348,0.1337,0.1338,0.1339,0.134,0.1378,0.1379,0,0,0,0,0,0,0.1244,0.1248,0.128,0.1282,0.1263,0.1281,0.1284,0.1292,0.1308,0.1311,0.13,0.13,0.1324,0.1327,0.1329,0.1345,0.1339,0.134,0.134,0.1378,0.1378,0.1379,0,0,0,0,0,0,0.1243,0.1246,0.1279,0.1265,0.127,0.1282,0.129,0.1292,0.1298,0.1311,0.1314,0.1303,0.1324,0.1328,0.1341,0.1346,0.134,0.1341,0.1378,0.1378,0.1379,0.1376,0,0,0,0,0,0,0.1241,0.1246,0.125,0.1265,0.127,0.129,0.1291,0.1293,0.13,0.1301,0.1315,0.1317,0.1325,0.1339,0.1343,0.1348,0.1342,0.1377,0.1378,0.1378,0.1376,0.1376,0.1377,0,0,0,0,0,0.124,0.1248,0.1251,0.1254,0.1276,0.1291,0.1294,0.1302,0.13,0.1305,0.1314,0.1317,0.1345,0.1341,0.1344,0.135,0.1377,0.1378,0.1378,0.1375,0.1376,0.1377,0,0,0,0,0,0,0.1234,0.1251,0.1253,0.1267,0.1277,0.1292,0.1298,0.1302,0.1313,0.1313,0.1322,0.1325,0.1338,0.1345,0.1341,0.1363,0.1361,0.1363,0.1358,0.1358,0.1359,0.1357,0.1344,0,0,0,0,0,0.1234,0.1244,0.1258,0.1269,0.1274,0.1285,0.1292,0.1297,0.1308,0.1313,0.1322,0.1333,0.1345,0.1352,0.1363,0.1376,0.138,0.1382,0.1383,0.1383,0.1384,0.1393,0.1394,0.1381,0.1381,0.1381,0,0,0.1234,0.1245,0.1251,0.1268,0.1277,0.1288,0.1289,0.13,0.1308,0.1315,0.1328,0.1336,0.1348,0.1362,0.1369,0.1369,0.1389,0.1384,0.1384,0.1385,0.1393,0.1395,0.1396,0.1381,0.1381,0.1381,0,0,0.1241,0.125,0.126,0.1269,0.1283,0.129,0.1292,0.1307,0.1312,0.1326,0.1331,0.1341,0.136,0.1369,0.1376,0.1386,0.139,0.139,0.1392,0.1401,0.1402,0.1403,0.1407,0.1408,0.1391,0.1391,0.1391,0,0.124,0.1257,0.1265,0.1276,0.1284,0.129,0.1301,0.1309,0.1325,0.133,0.133,0.1354,0.1363,0.138,0.1382,0.1388,0.1391,0.1388,0.1401,0.1402,0.1403,0.1407,0.1409,0.1391,0.1391,0.1391,0.1391,0,0.1255,0.1267,0.1273,0.1289,0.1298,0.1308,0.1319,0.1326,0.1331,0.1338,0.1352,0.1363,0.1377,0.1381,0.1386,0.1399,0.1398,0.1399,0.1398,0.1404,0.1408,0.141,0.1391,0.1391,0.1391,0.1391,0,0,0.1259,0.128,0.1282,0.129,0.1305,0.1314,0.1325,0.1339,0.1345,0.1356,0.1366,0.1382,0.1383,0.1391,0.1397,0.1404,0.1413,0.1404,0.1405,0.1406,0.1428,0.1428,0.143,0.1415,0.1415,0.1415,0.1427,0,0.1268,0.1289,0.1297,0.1313,0.1324,0.1331,0.1341,0.1351,0.1359,0.1369,0.1377,0.1389,0.1389,0.1394,0.1401,0.141,0.1417,0.1409,0.1425,0.1425,0.1422,0.1432,0.1431,0.1442,0.1429,0.1429,0.143,0,0.1281,0.1293,0.1311,0.1326,0.1331,0.1339,0.1353,0.1362,0.1375,0.138,0.1389,0.1394,0.1406,0.1404,0.1421,0.1416,0.1423,0.1428,0.1428,0.1431,0.1428,0.1435,0.1446,0.1447,0.1432,0.1432,0.1432,0,0.1283,0.1303,0.1316,0.1323,0.134,0.1346,0.1354,0.1366,0.1374,0.1385,0.1391,0.1403,0.141,0.142,0.1429,0.1427,0.1446,0.1444,0.1451,0.145,0.1455,0.1455,0.1468,0.1458,0.1458,0.1458,0.1458,0,0.1292,0.1303,0.1318,0.1326,0.1339,0.1348,0.136,0.1368,0.1379,0.1389,0.1395,0.1404,0.1415,0.1426,0.1433,0.1446,0.1449,0.1454,0.1456,0.1454,0.1453,0.1459,0.1458,0.1459,0.1458,0.1458,0.1458,0,0.1296,0.1306,0.1322,0.1337,0.1341,0.135,0.1363,0.1372,0.1379,0.1392,0.1396,0.1408,0.1421,0.1431,0.1447,0.1452,0.1467,0.1468,0.1463,0.1464,0.147,0.147,0.1488,0.1491,0.1479,0.1479,0.1479,0,0.1302,0.1311,0.1327,0.1335,0.1342,0.1354,0.1362,0.1372,0.138,0.1395,0.1402,0.1416,0.1427,0.1448,0.1458,0.1471,0.1474,0.1479,0.1476,0.1474,0.1474,0.1474,0.1475,0.148,0.148,0.148,0.148,0,0.1311,0.1316,0.1328,0.1342,0.1351,0.1362,0.1374,0.1379,0.1391,0.14,0.1414,0.1423,0.144,0.1454,0.1468,0.1476,0.148,0.1481,0.1483,0.1481,0.1478,0.1481,0.1465,0.148,0.148,0.148,0.148,0.148,0.1317,0.1325,0.1338,0.1351,0.1361,0.1372,0.1381,0.139,0.1401,0.1417,0.1421,0.1436,0.1448,0.1468,0.1476,0.1487,0.1487,0.149,0.1491,0.1492,0.1493,0.1476,0.149,0.149,0.149,0.149,0.149,0,0.1327,0.1336,0.1348,0.1364,0.1374,0.1377,0.139,0.1399,0.1411,0.1423,0.1434,0.145,0.1464,0.1475,0.1489,0.1496,0.1498,0.15,0.1499,0.1501,0.1491,0.1488,0.1498,0.1498,0.1498,0.1498,0.1498,0.1498,0.1333,0.1348,0.1354,0.1374,0.1383,0.1397,0.1404,0.1414,0.1424,0.1441,0.1453,0.146,0.1472,0.1487,0.15,0.1503,0.1508,0.1509,0.1512,0.1503,0.1502,0.1501,0.1498,0.1509,0.1509,0.1521,0.1521,0.1521]},{"header":{"parameterUnit":"m.s-1","parameterCategory":1,"la1":30.2991,"la2":30.254,"lo1":-89.0895,"lo2":-89.0444,"dy":0.0017,"dx":0.0017,"nx":28,"ny":28,"refTime":"2025-02-07T03:00:00:Z","depth":0,"parameterNumber":3,"parameterNumberName":"V-component_of_WINDS"},"data":[0,0,0,0,0,0,0,0,0,0,0,0,0,0,0,0,0,0,0,0,0,0,0,0,0,0,0,0,0,0,0,0,0,0,0,0,0,0,0,0,0,0,0,0,0,0,0,0,0,0,0,0,0,0,0,0,0,0,3.6815,3.6815,0,3.6802,3.6802,3.6801,3.6791,3.6791,3.6791,3.6791,3.6773,3.6773,3.6773,0,0,0,0,0,0,0,0,0,0,0,0,0,3.683,3.683,3.6815,3.6815,3.6815,3.6802,3.6801,3.6801,3.6791,3.6791,3.6791,3.6791,3.6774,3.6773,3.6773,0,0,0,0,0,0,0,0,0,0,0,0,0,3.6821,3.683,3.6815,3.6808,3.6808,3.6802,3.6801,3.6801,3.6791,3.6791,3.6791,3.6791,3.6774,3.6773,3.6773,3.6771,0,0,3.6771,3.6771,0,0,0,0,0,0,0,0,3.6821,3.682,3.6809,3.6809,3.6808,3.6798,3.68,3.6791,3.6791,3.6797,3.6791,3.6791,3.6781,3.678,3.6778,3.6771,3.677,3.6771,3.677,3.677,3.677,0,0,0,0,0,0,0,3.6822,3.6821,3.681,3.6809,3.6808,3.6805,3.6804,3.6799,3.679,3.6797,3.6796,3.6795,3.6781,3.6778,3.6777,3.677,3.6771,3.677,3.677,3.677,3.6763,3.6763,0,0,0,0,0,0,3.6824,3.6821,3.681,3.6809,3.6815,3.6805,3.6803,3.6801,3.679,3.6788,3.6795,3.6794,3.678,3.6778,3.6777,3.6776,3.677,3.677,3.6769,3.6763,3.6763,3.6763,0,0,0,0,0,0,3.6825,3.6823,3.6811,3.6815,3.6813,3.6805,3.6803,3.6801,3.6799,3.6789,3.6787,3.6794,3.6779,3.6778,3.6774,3.6775,3.6769,3.6769,3.6763,3.6763,3.6763,3.6774,0,0,0,0,0,0,3.6825,3.6823,3.6823,3.6815,3.6813,3.6808,3.6803,3.6801,3.6798,3.6797,3.6787,3.6786,3.6779,3.6775,3.6773,3.6775,3.6768,3.6763,3.6763,3.6763,3.6774,3.6775,3.6776,0,0,0,0,0,3.6826,3.6825,3.6823,3.6822,3.6813,3.6808,3.6807,3.6801,3.6798,3.6798,3.6792,3.6786,3.6776,3.6774,3.6772,3.6774,3.6762,3.6763,3.6763,3.6773,3.6775,3.6776,0,0,0,0,0,0,3.6831,3.6824,3.6822,3.6819,3.6815,3.6807,3.6806,3.6802,3.6797,3.6796,3.6787,3.6785,3.6783,3.6778,3.6776,3.6773,3.6768,3.6768,3.6777,3.6778,3.6779,3.678,3.6768,0,0,0,0,0,3.6833,3.6831,3.6824,3.6822,3.6821,3.6814,3.6811,3.6807,3.6802,3.6799,3.6793,3.6787,3.6783,3.678,3.6775,3.6773,3.6772,3.6773,3.6775,3.6776,3.6776,3.6776,3.6777,3.6765,3.6765,3.6765,0,0,3.6835,3.6831,3.6829,3.6824,3.682,3.6818,3.6812,3.6809,3.6808,3.6799,3.6795,3.6791,3.6784,3.6782,3.678,3.6777,3.6779,3.6776,3.6777,3.6776,3.6777,3.6778,3.6779,3.6765,3.6765,3.6765,0,0,3.6838,3.6834,3.6833,3.683,3.6826,3.6822,3.6822,3.6815,3.6812,3.6809,3.6803,3.6801,3.6793,3.6789,3.6786,3.6791,3.6785,3.6789,3.6795,3.6795,3.6796,3.6797,3.68,3.6801,3.6789,3.6789,3.6789,0,3.684,3.6838,3.6833,3.6832,3.683,3.6824,3.6824,3.682,3.6814,3.6812,3.681,3.6802,3.6796,3.6794,3.6796,3.6793,3.6793,3.679,3.6797,3.6798,3.6798,3.6801,3.6802,3.679,3.679,3.679,3.679,0,3.6842,3.6841,3.6841,3.6837,3.6835,3.6834,3.6829,3.6828,3.6824,3.6821,3.6818,3.6812,3.6808,3.6807,3.6802,3.6804,3.6803,3.6799,3.6794,3.68,3.6803,3.6804,3.6791,3.679,3.679,3.679,0,0,3.6846,3.6843,3.6843,3.6842,3.6838,3.6836,3.6835,3.6832,3.6832,3.6828,3.6828,3.6823,3.682,3.6816,3.6812,3.6812,3.6819,3.6808,3.6808,3.6811,3.6823,3.6826,3.6828,3.6815,3.6816,3.6816,3.6824,0,3.6849,3.6849,3.6846,3.6847,3.6846,3.6842,3.6841,3.6839,3.6836,3.6834,3.6831,3.6828,3.6823,3.6822,3.6822,3.6818,3.6821,3.6817,3.6815,3.6815,3.6818,3.6829,3.6832,3.6839,3.6824,3.6824,3.6825,0,3.6852,3.6851,3.6852,3.6851,3.685,3.685,3.6848,3.6847,3.6844,3.6842,3.684,3.6836,3.6836,3.6831,3.6831,3.6828,3.6827,3.6825,3.6826,3.6825,3.682,3.6829,3.6841,3.6843,3.6826,3.6826,3.6826,0,3.6856,3.6855,3.6857,3.6856,3.6854,3.6854,3.6853,3.685,3.685,3.6848,3.6848,3.6845,3.6844,3.6842,3.6838,3.6835,3.6838,3.6833,3.6837,3.6837,3.6837,3.6838,3.685,3.6836,3.6836,3.6836,3.6836,0,3.686,3.6861,3.6859,3.686,3.6862,3.6858,3.686,3.6858,3.6857,3.6857,3.6852,3.6853,3.6846,3.6846,3.6842,3.6844,3.6843,3.6841,3.684,3.6842,3.6842,3.6841,3.6841,3.6836,3.6836,3.6836,3.6836,0,3.6865,3.6864,3.6865,3.6864,3.6864,3.6865,3.6864,3.6865,3.6863,3.6863,3.6863,3.686,3.6859,3.6855,3.6853,3.6851,3.6854,3.6851,3.6855,3.6855,3.6859,3.6859,3.6872,3.6874,3.6858,3.6858,3.6858,0,3.6867,3.6869,3.6869,3.687,3.687,3.6871,3.6871,3.6868,3.6869,3.6868,3.6869,3.6869,3.6868,3.6868,3.6865,3.6864,3.6862,3.6867,3.6862,3.6864,3.6863,3.6864,3.6865,3.6868,3.6868,3.6868,3.6868,0,3.6872,3.6873,3.6874,3.6876,3.6877,3.6878,3.6878,3.6879,3.6876,3.6877,3.6878,3.6878,3.6878,3.6878,3.6877,3.6875,3.6871,3.687,3.6871,3.6873,3.6876,3.6876,3.6859,3.687,3.6869,3.6869,3.6869,3.6869,3.6877,3.6879,3.688,3.6882,3.6883,3.6885,3.6886,3.6886,3.6887,3.6888,3.6886,3.6888,3.6887,3.6886,3.6885,3.6886,3.6883,3.6885,3.6885,3.6886,3.6887,3.6876,3.6886,3.6886,3.6885,3.6885,3.6885,0,3.6882,3.6884,3.6886,3.6889,3.6891,3.689,3.6891,3.6892,3.6895,3.6895,3.6896,3.6898,3.6899,3.6897,3.6898,3.6899,3.6898,3.69,3.69,3.69,3.6889,3.6888,3.6901,3.6901,3.6901,3.6901,3.6901,3.6901,3.6886,3.689,3.6891,3.6896,3.6897,3.69,3.6901,3.6903,3.6904,3.6907,3.6909,3.6908,3.6908,3.6909,3.691,3.691,3.6911,3.6913,3.6912,3.6902,3.69,3.6899,3.6898,3.6913,3.6913,3.6923,3.6923,3.6923]}]]